Sigfox identifier Datetime Temperature Humidity SNR
002EEBE3 2019-04-23 14:52:10 16.6 32 26
002EEBE3 2019-04-23 14:18:27 16.5 32 26.1
002EEBE3 2019-04-23 13:44:47 16.4 32 26
002EEBE3 2019-04-23 13:11:06 16.3 32 26
002EEBE3 2019-04-23 12:37:26 16.1 32 26
002EEBE3 2019-04-23 12:03:46 16.1 32 25.9
002EEBE3 2019-04-23 11:30:06 16.1 32 25.8
002EEBE3 2019-04-23 10:56:24 15.9 32 25.7
002EEBE3 2019-04-23 10:22:43 15.9 32 25.5
002EEBE3 2019-04-23 09:49:01 15.9 32 25.6
002EEBE3 2019-04-23 09:15:20 15.9 31 25.6
002EEBE3 2019-04-23 08:41:38 15.9 31 25.6
002EEBE3 2019-04-23 08:07:55 15.9 31 25.6
002EEBE3 2019-04-23 07:34:13 15.9 31 25.7
002EEBE3 2019-04-23 07:00:32 15.9 31 25.7
002EEBE3 2019-04-23 06:26:51 16 31 25.6
002EEBE3 2019-04-23 05:53:09 15.9 31 25.5
002EEBE3 2019-04-23 05:19:29 15.9 31 25.4
002EEBE3 2019-04-23 04:45:48 15.8 31 25.5
002EEBE3 2019-04-23 04:12:08 15.9 31 25.5
002EEBE3 2019-04-23 03:38:26 15.9 31 25.6
002EEBE3 2019-04-23 03:04:45 15.8 31 25.5
002EEBE3 2019-04-23 02:31:05 15.9 31 25.5
002EEBE3 2019-04-23 01:57:24 15.9 31 25.3
002EEBE3 2019-04-23 01:23:43 15.9 31 25.4
002EEBE3 2019-04-23 00:50:01 15.9 31 25.4
002EEBE3 2019-04-23 00:16:19 16 31 25.4
002EEBE3 2019-04-22 23:42:36 15.9 31 25.3
002EEBE3 2019-04-22 23:08:54 16 31 25.3
002EEBE3 2019-04-22 22:35:13 15.9 31 25.1
002EEBE3 2019-04-22 22:01:31 15.9 31 25.1
002EEBE3 2019-04-22 21:27:50 16.1 31 25
002EEBE3 2019-04-22 20:54:07 16.1 31 25
002EEBE3 2019-04-22 20:20:25 16.1 31 25.1
002EEBE3 2019-04-22 19:46:43 16.1 31 25
002EEBE3 2019-04-22 19:13:01 16.2 31 25
002EEBE3 2019-04-22 18:39:19 16.2 31 25
002EEBE3 2019-04-22 18:05:38 16.2 31 25
002EEBE3 2019-04-22 17:31:56 16.2 31 25
002EEBE3 2019-04-22 16:58:14 16.1 31 25
002EEBE3 2019-04-22 16:24:33 16.1 31 24.9
002EEBE3 2019-04-22 15:50:52 16.2 31 24.8
002EEBE3 2019-04-22 15:17:10 16.1 31 24.9
002EEBE3 2019-04-22 14:43:28 16.1 31 24.9
002EEBE3 2019-04-22 14:09:47 16.1 31 24.9
002EEBE3 2019-04-22 13:36:06 16.1 31 24.8
002EEBE3 2019-04-22 13:02:24 16 31 25
002EEBE3 2019-04-22 12:28:43 15.9 31 24.9
002EEBE3 2019-04-22 11:55:01 16 31 25
002EEBE3 2019-04-22 11:21:19 15.9 31 24.8
002EEBE3 2019-04-22 10:47:37 16 31 24.8
002EEBE3 2019-04-22 10:13:55 15.9 31 24.9
002EEBE3 2019-04-22 09:40:14 15.9 30 24.9
002EEBE3 2019-04-22 09:06:32 15.9 30 25
002EEBE3 2019-04-22 08:32:51 15.9 30 24.9
002EEBE3 2019-04-22 07:59:08 15.9 30 24.8
002EEBE3 2019-04-22 07:25:26 15.9 30 24.8
002EEBE3 2019-04-22 06:51:45 15.9 30 24.8
002EEBE3 2019-04-22 06:18:03 15.9 30 24.6
002EEBE3 2019-04-22 05:44:22 15.9 30 24.7
002EEBE3 2019-04-22 05:10:41 15.9 30 25.1
002EEBE3 2019-04-22 04:36:58 15.9 30 25
002EEBE3 2019-04-22 04:03:15 15.9 30 25
002EEBE3 2019-04-22 03:29:33 15.8 30 25
002EEBE3 2019-04-22 02:55:51 15.9 30 24.9
002EEBE3 2019-04-22 02:22:10 15.7 30 25
002EEBE3 2019-04-22 01:48:28 15.8 30 25.1
002EEBE3 2019-04-22 01:14:48 15.7 30 25.1
002EEBE3 2019-04-22 00:41:07 15.7 30 25.1
002EEBE3 2019-04-22 00:07:27 15.7 30 25.1
002EEBE3 2019-04-21 23:33:46 15.7 30 25.2
002EEBE3 2019-04-21 23:00:06 15.8 30 25.4
002EEBE3 2019-04-21 22:26:23 15.7 30 25.3
002EEBE3 2019-04-21 21:52:42 15.7 30 25.5
002EEBE3 2019-04-21 21:19:00 15.7 30 25.4
002EEBE3 2019-04-21 20:45:18 15.7 30 25.5
002EEBE3 2019-04-21 20:11:35 15.7 30 25.5
002EEBE3 2019-04-21 19:37:53 15.7 30 25.6
002EEBE3 2019-04-21 19:04:11 15.7 30 25.6
002EEBE3 2019-04-21 18:30:29 15.7 30 25.7
002EEBE3 2019-04-21 17:56:47 15.7 30 25.7
002EEBE3 2019-04-21 17:23:04 15.7 30 25.6
002EEBE3 2019-04-21 16:49:22 15.7 30 25.6
002EEBE3 2019-04-21 16:15:40 15.7 30 25.6
002EEBE3 2019-04-21 15:41:58 15.7 30 25.3
002EEBE3 2019-04-21 15:08:17 15.7 30 25.4
002EEBE3 2019-04-21 14:34:34 15.7 30 25.5
002EEBE3 2019-04-21 14:00:52 15.8 30 25.4
002EEBE3 2019-04-21 13:27:09 15.8 30 25.4
002EEBE3 2019-04-21 12:53:27 15.7 29 25.4
002EEBE3 2019-04-21 12:19:45 15.7 29 25.5
002EEBE3 2019-04-21 11:46:03 15.7 29 25.5
002EEBE3 2019-04-21 11:12:21 15.7 29 25.4
002EEBE3 2019-04-21 10:38:38 15.7 29 25.4
002EEBE3 2019-04-21 10:04:55 15.8 29 25.4
002EEBE3 2019-04-21 09:31:14 15.8 29 25.3
002EEBE3 2019-04-21 08:57:31 15.9 29 25.2
002EEBE3 2019-04-21 08:23:48 15.9 29 25.2
002EEBE3 2019-04-21 07:50:05 15.9 29 25.2
002EEBE3 2019-04-21 07:16:22 16 29 25.3
002EEBE3 2019-04-21 06:42:39 16 29 25.1
002EEBE3 2019-04-21 06:08:55 15.9 29 25.1
002EEBE3 2019-04-21 05:35:13 15.9 29 25
002EEBE3 2019-04-21 05:01:31 15.9 29 25
002EEBE3 2019-04-21 04:27:49 15.8 29 24.8
002EEBE3 2019-04-21 03:54:07 15.9 29 25
002EEBE3 2019-04-21 03:20:24 15.8 29 25
002EEBE3 2019-04-21 02:46:43 15.9 29 24.9
002EEBE3 2019-04-21 02:13:00 15.8 29 24.8
002EEBE3 2019-04-21 01:39:18 15.9 29 24.7
002EEBE3 2019-04-21 01:05:36 15.8 29 24.6
002EEBE3 2019-04-21 00:31:54 15.8 29 24.8
002EEBE3 2019-04-20 23:58:11 15.9 29 24.7
002EEBE3 2019-04-20 23:24:28 15.7 29 24.7
002EEBE3 2019-04-20 22:50:44 15.8 29 24.8
002EEBE3 2019-04-20 22:17:03 15.8 29 24.8
002EEBE3 2019-04-20 21:43:20 15.7 29 24.8
002EEBE3 2019-04-20 21:09:37 15.7 29 24.8
002EEBE3 2019-04-20 20:35:56 15.9 29 24.8
002EEBE3 2019-04-20 20:02:14 15.7 29 24.7
002EEBE3 2019-04-20 19:28:31 15.8 29 24.7
002EEBE3 2019-04-20 18:54:50 15.8 29 24.6
002EEBE3 2019-04-20 18:21:10 16 29 24.6
002EEBE3 2019-04-20 17:47:28 15.9 29 24.6
002EEBE3 2019-04-20 17:13:46 15.7 29 24.7
002EEBE3 2019-04-20 16:40:04 15.8 29 24.5
002EEBE3 2019-04-20 16:06:23 15.8 29 24.6
002EEBE3 2019-04-20 15:32:41 15.9 28 24.7
002EEBE3 2019-04-20 14:58:59 15.7 28 24.9
002EEBE3 2019-04-20 14:25:18 15.7 28 24.8
002EEBE3 2019-04-20 13:51:37 15.7 28 24.8
002EEBE3 2019-04-20 13:17:55 15.7 28 24.9
002EEBE3 2019-04-20 12:44:13 15.7 28 25
002EEBE3 2019-04-20 12:10:33 15.7 28 25.1
002EEBE3 2019-04-20 11:36:49 15.7 28 24.9
002EEBE3 2019-04-20 11:03:07 15.8 28 24.6
002EEBE3 2019-04-20 10:29:25 15.7 28 24.7
002EEBE3 2019-04-20 09:55:43 15.8 28 24.7
002EEBE3 2019-04-20 09:22:01 16 28 24.6
002EEBE3 2019-04-20 08:48:20 16 28 24.7
002EEBE3 2019-04-20 08:14:39 16 28 24.6
002EEBE3 2019-04-20 07:40:57 16 28 24.6
002EEBE3 2019-04-20 07:07:16 16 28 24.6
002EEBE3 2019-04-20 06:33:35 16 28 24.6
002EEBE3 2019-04-20 05:59:54 15.9 28 24.7
002EEBE3 2019-04-20 05:26:11 16 28 24.9
002EEBE3 2019-04-20 04:52:29 16 28 24.8
002EEBE3 2019-04-20 04:18:47 16 28 24.9
002EEBE3 2019-04-20 03:45:06 15.9 28 24.9
002EEBE3 2019-04-20 03:11:24 16 28 25
002EEBE3 2019-04-20 02:37:42 16.1 28 24.9
002EEBE3 2019-04-20 02:04:00 16.2 28 24.9
002EEBE3 2019-04-20 01:30:20 16.2 28 24.9
002EEBE3 2019-04-20 00:56:41 16.1 28 25
002EEBE3 2019-04-20 00:22:57 16.1 28 24.9
002EEBE3 2019-04-19 23:49:15 16.2 28 24.8
002EEBE3 2019-04-19 23:15:33 16.2 28 24.9
002EEBE3 2019-04-19 22:41:51 16.4 28 25
002EEBE3 2019-04-19 22:08:11 16.4 28 25.1
002EEBE3 2019-04-19 21:34:30 16.4 28 25.1
002EEBE3 2019-04-19 21:00:49 16.4 28 25
002EEBE3 2019-04-19 20:27:09 16.4 27 25
002EEBE3 2019-04-19 19:53:29 16.4 27 25
002EEBE3 2019-04-19 19:19:49 16.4 27 25.1
002EEBE3 2019-04-19 18:46:08 16.5 27 25.1
002EEBE3 2019-04-19 18:12:28 16.6 27 25.2
002EEBE3 2019-04-19 17:38:47 16.5 27 25.2
002EEBE3 2019-04-19 17:05:07 16.4 27 25
002EEBE3 2019-04-19 16:31:26 16.4 27 25
002EEBE3 2019-04-19 15:57:46 16.4 27 25
002EEBE3 2019-04-19 15:24:06 16.4 27 24.9
002EEBE3 2019-04-19 14:50:26 16.4 27 24.9
002EEBE3 2019-04-19 14:16:44 16.3 27 25
002EEBE3 2019-04-19 13:43:02 16.1 27 25.1
002EEBE3 2019-04-19 13:09:23 16.2 27 25.1
002EEBE3 2019-04-19 12:35:39 16.1 27 25
002EEBE3 2019-04-19 12:01:57 16.2 27 25
002EEBE3 2019-04-19 11:28:14 16.1 27 25.1
002EEBE3 2019-04-19 10:54:32 16.2 27 25.3
002EEBE3 2019-04-19 10:20:51 16.1 27 25.3
002EEBE3 2019-04-19 09:47:10 16.1 27 25.3
002EEBE3 2019-04-19 09:13:28 16.1 27 25.4
002EEBE3 2019-04-19 08:39:47 16.2 27 25.5
002EEBE3 2019-04-19 08:06:06 16.1 27 25.5
002EEBE3 2019-04-19 07:32:26 16.2 27 25.6
002EEBE3 2019-04-19 06:58:45 16.1 27 25.7
002EEBE3 2019-04-19 06:25:05 16.1 27 25.7
002EEBE3 2019-04-19 05:51:25 16.1 27 25.8
002EEBE3 2019-04-19 05:17:44 16.2 27 25.8
002EEBE3 2019-04-19 04:44:04 16.2 27 25.8
002EEBE3 2019-04-19 04:10:24 16.2 26 25.7
002EEBE3 2019-04-19 03:36:44 16.3 26 25.7
002EEBE3 2019-04-19 03:03:05 16.4 26 25.8
002EEBE3 2019-04-19 02:29:25 16.4 26 25.8
002EEBE3 2019-04-19 01:55:45 16.4 26 25.8
002EEBE3 2019-04-19 01:22:04 16.4 26 26
002EEBE3 2019-04-19 00:48:23 16.5 26 25.9
002EEBE3 2019-04-19 00:14:41 16.6 26 25.8
002EEBE3 2019-04-18 23:41:00 16.6 26 25.6
002EEBE3 2019-04-18 23:07:18 16.8 26 25.7
002EEBE3 2019-04-18 22:33:36 16.8 26 25.6
002EEBE3 2019-04-18 21:59:56 16.8 26 25.6
002EEBE3 2019-04-18 21:26:14 16.8 26 25.5
002EEBE3 2019-04-18 20:52:33 16.8 26 25.4
002EEBE3 2019-04-18 20:18:52 16.8 26 25.3
002EEBE3 2019-04-18 19:45:10 17 26 25.2
002EEBE3 2019-04-18 19:11:28 17 26 25.2
002EEBE3 2019-04-18 18:37:46 17 26 25.1
002EEBE3 2019-04-18 18:04:04 17 26 25.2
002EEBE3 2019-04-18 17:30:22 16.8 26 25
002EEBE3 2019-04-18 16:56:40 16.8 26 24.9
002EEBE3 2019-04-18 16:22:59 16.8 26 24.9
002EEBE3 2019-04-18 15:49:19 16.8 26 24.8
002EEBE3 2019-04-18 15:15:36 16.8 26 24.8
002EEBE3 2019-04-18 14:41:54 16.6 26 24.9
002EEBE3 2019-04-18 14:08:11 16.6 26 25
002EEBE3 2019-04-18 13:34:29 16.5 26 24.8
002EEBE3 2019-04-18 13:00:48 16.5 26 24.7
002EEBE3 2019-04-18 12:27:08 16.4 26 24.9
002EEBE3 2019-04-18 11:53:26 16.4 25 24.8
002EEBE3 2019-04-18 11:19:44 16.4 25 24.9
002EEBE3 2019-04-18 10:46:02 16.5 25 25
002EEBE3 2019-04-18 10:12:19 16.4 25 25.1
002EEBE3 2019-04-18 09:38:36 16.4 25 25.1
002EEBE3 2019-04-18 09:04:55 16.4 25 25.1
002EEBE3 2019-04-18 08:31:13 16.5 25 25.1
002EEBE3 2019-04-18 07:57:31 16.6 25 25.1
002EEBE3 2019-04-18 07:23:50 16.6 25 25.1
002EEBE3 2019-04-18 06:50:09 16.6 25 25
002EEBE3 2019-04-18 06:16:29 16.6 25 25
002EEBE3 2019-04-18 05:42:48 16.4 25 25.1
002EEBE3 2019-04-18 05:09:06 16.4 25 25.1
002EEBE3 2019-04-18 04:35:25 16.4 25 25.1
002EEBE3 2019-04-18 04:01:45 16.4 25 25.1
002EEBE3 2019-04-18 03:28:05 16.4 25 25
002EEBE3 2019-04-18 02:54:25 16.4 25 24.9
002EEBE3 2019-04-18 02:20:44 16.6 25 24.7
002EEBE3 2019-04-18 01:47:03 16.6 25 24.6
002EEBE3 2019-04-18 01:13:22 16.8 25 24.5
002EEBE3 2019-04-18 00:39:40 16.8 25 24.2
002EEBE3 2019-04-18 00:06:00 17 25 24
002EEBE3 2019-04-17 23:32:17 17 25 23.8
002EEBE3 2019-04-17 22:58:36 17 25 23.4
002EEBE3 2019-04-17 22:24:55 17 25 23.1
002EEBE3 2019-04-17 21:51:13 17 25 22.9
002EEBE3 2019-04-17 21:17:31 17 24 22.7
002EEBE3 2019-04-17 20:43:48 17 24 22.4
002EEBE3 2019-04-17 20:10:05 17 24 22.1
002EEBE3 2019-04-17 19:36:23 17 24 22
002EEBE3 2019-04-17 19:02:40 17 24 21.7
002EEBE3 2019-04-17 18:28:58 17 24 21.4
002EEBE3 2019-04-17 17:55:15 17 24 21.1
002EEBE3 2019-04-17 17:21:32 17 24 20.8
002EEBE3 2019-04-17 16:47:49 17 24 20.1
002EEBE3 2019-04-17 16:14:07 17 24 21.4
002EEBE3 2019-04-17 15:40:26 17 24 20.9
002EEBE3 2019-04-17 15:06:44 17 24 20.4
002EEBE3 2019-04-17 14:33:02 17 24 20.4
002EEBE3 2019-04-17 13:59:20 17.1 24 21.6
002EEBE3 2019-04-17 12:51:57 17.3 24 21.5
002EEBE3 2019-04-17 12:18:13 17.3 24 21.5
002EEBE3 2019-04-17 11:44:31 17.3 24 21.4
002EEBE3 2019-04-17 11:10:48 17.3 24 21.4
002EEBE3 2019-04-17 10:37:07 17.3 23 21.2
002EEBE3 2019-04-17 10:03:25 17.2 23 21.1
002EEBE3 2019-04-17 09:29:43 17.2 23 21.1
002EEBE3 2019-04-17 08:56:01 17.3 23 21.1
002EEBE3 2019-04-17 08:22:20 17.5 23 21.1
002EEBE3 2019-04-17 07:48:39 17.6 23 21.1
002EEBE3 2019-04-17 07:14:58 17.7 23 21.1
002EEBE3 2019-04-17 06:41:16 17.8 23 21.2
002EEBE3 2019-04-17 06:07:33 17.9 23 21.3
002EEBE3 2019-04-17 05:33:50 17.9 23 21.5
002EEBE3 2019-04-17 05:00:09 18 23 21.5
002EEBE3 2019-04-17 04:26:27 18.1 23 21.4
002EEBE3 2019-04-17 03:52:46 18.1 23 21.4
002EEBE3 2019-04-17 03:19:05 18.2 23 21.3
002EEBE3 2019-04-17 02:45:24 18.3 23 21.3
002EEBE3 2019-04-17 02:11:43 18.3 23 21.4
002EEBE3 2019-04-17 01:38:01 18.3 23 19.9
002EEBE3 2019-04-17 01:04:19 18.3 23 19.8
002EEBE3 2019-04-17 00:30:38 18.4 23 19.7
002EEBE3 2019-04-16 23:56:55 18.3 23 19.6
002EEBE3 2019-04-16 23:23:14 18.3 22 17.2
002EEBE3 2019-04-16 22:49:33 18.4 22 17
002EEBE3 2019-04-16 22:15:51 18.7 22 17
002EEBE3 2019-04-16 21:42:11 18.9 22 17
002EEBE3 2019-04-16 21:08:30 19.1 22 17.1
002EEBE3 2019-04-16 20:34:49 19.1 22 17.3
002EEBE3 2019-04-16 20:01:09 19.2 22 17.3
002EEBE3 2019-04-16 19:27:27 19.4 22 17.2
002EEBE3 2019-04-16 18:53:49 19.3 22 17.2
002EEBE3 2019-04-16 18:20:07 19.3 22 17.3
002EEBE3 2019-04-16 17:46:26 19.4 22 17
002EEBE3 2019-04-16 16:39:05 19.8 22 17
002EEBE3 2019-04-16 16:05:26 19.9 22 16.7
002EEBE3 2019-04-16 15:31:46 20.2 22 16
002EEBE3 2019-04-16 14:58:06 20.4 22 15
002EEBE3 2019-04-16 14:24:27 20.9 22 15
002EEBE3 2019-04-16 13:50:49 21.3 22 15
002EEBE3 2019-04-16 13:17:06 21.3 22 15.1
002EEBE3 2019-04-16 12:43:25 21.3 22 15.3
002EEBE3 2019-04-16 12:09:46 21.3 22 15.2
002EEBE3 2019-04-16 11:36:04 21.3 22 14.8
002EEBE3 2019-04-16 11:02:25 21.3 22 14.8
002EEBE3 2019-04-16 10:28:48 21.2 22 14.8
002EEBE3 2019-04-16 09:55:08 21.3 22 15
002EEBE3 2019-04-16 09:21:30 21.3 22 15.3
002EEBE3 2019-04-16 08:47:47 21.3 22 15.4
002EEBE3 2019-04-16 08:14:08 21.2 22 15.5
002EEBE3 2019-04-16 07:40:29 21.2 22 15.7
002EEBE3 2019-04-16 07:06:46 21.2 22 15.6
002EEBE3 2019-04-16 06:33:11 21.3 22 15.4
002EEBE3 2019-04-16 05:59:28 21.2 22 15.2
002EEBE3 2019-04-16 05:25:47 21.3 22 15
002EEBE3 2019-04-16 04:52:06 21.3 22 14.9
002EEBE3 2019-04-16 04:18:29 21.3 21 14.9
002EEBE3 2019-04-16 03:44:47 21.3 21 14.9
002EEBE3 2019-04-16 03:11:09 21.3 21 16.5
002EEBE3 2019-04-16 02:37:29 21.3 21 18.7
002EEBE3 2019-04-16 02:03:50 21.3 21 19.4
002EEBE3 2019-04-16 01:30:10 21.3 21 20.3
002EEBE3 2019-04-16 00:56:30 21.3 21 20.7
002EEBE3 2019-04-16 00:22:49 21.3 21 21.3
002EEBE3 2019-04-15 23:49:10 21.4 21 21.6
002EEBE3 2019-04-15 23:15:29 21.4 21 21.8
002EEBE3 2019-04-15 22:41:49 21.4 21 22.5
002EEBE3 2019-04-15 22:08:08 21.4 21 23
002EEBE3 2019-04-15 21:34:27 21.5 21 23.8
002EEBE3 2019-04-15 21:00:48 21.5 21 23.9
002EEBE3 2019-04-15 20:27:08 21.4 21 24.1
002EEBE3 2019-04-15 19:53:31 21.5 21 24.5
002EEBE3 2019-04-15 19:19:52 21.5 21 24.6
002EEBE3 2019-04-15 18:46:10 21.5 20 25
002EEBE3 2019-04-15 18:12:30 21.5 20 25.1
002EEBE3 2019-04-15 17:05:11 21.7 20 25.4
002EEBE3 2019-04-15 16:31:28 21.7 20 25.5
002EEBE3 2019-04-15 15:57:49 21.8 20 25.7
002EEBE3 2019-04-15 14:50:26 21.9 20 26.1
002EEBE3 2019-04-15 14:16:48 22.1 20 26.3
002EEBE3 2019-04-15 13:43:05 22.1 20 26.5
002EEBE3 2019-04-15 12:35:46 22.5 19 26.6
002EEBE3 2019-04-15 12:02:06 22.3 17 26.5
002EEBE3 2019-04-15 11:28:26 22.3 17 26.5
002EEBE3 2019-04-15 10:54:44 22.3 18 26.5
002EEBE3 2019-04-15 10:21:03 22.2 18 26.6
002EEBE3 2019-04-15 09:47:24 22.1 18 26.6
002EEBE3 2019-04-15 09:13:43 22.1 19 26.6
002EEBE3 2019-04-15 08:40:04 22.1 18 26.7
002EEBE3 2019-04-15 08:06:24 21.9 18 26.7
002EEBE3 2019-04-15 07:32:45 21.9 19 26.9
002EEBE3 2019-04-15 06:59:03 21.9 19 26.8
002EEBE3 2019-04-15 06:25:22 21.9 19 26.6
002EEBE3 2019-04-15 05:51:41 21.9 19 26.4
002EEBE3 2019-04-15 05:17:59 21.9 19 26.6
002EEBE3 2019-04-15 04:44:18 21.9 19 26.6
002EEBE3 2019-04-15 04:10:36 21.9 19 26.5
002EEBE3 2019-04-15 03:36:56 21.9 19 26.5
002EEBE3 2019-04-15 03:03:15 21.9 19 26.5
002EEBE3 2019-04-15 02:29:33 21.9 19 26.6
002EEBE3 2019-04-15 01:55:52 21.9 19 26.4
002EEBE3 2019-04-15 01:22:11 21.9 19 26.5
002EEBE3 2019-04-15 00:48:31 21.9 19 26.6
002EEBE3 2019-04-15 00:14:50 21.9 19 26.5
002EEBE3 2019-04-14 23:41:08 21.9 19 26.4
002EEBE3 2019-04-14 23:07:27 21.9 19 26.4
002EEBE3 2019-04-14 22:33:46 21.9 19 26.4
002EEBE3 2019-04-14 22:00:07 22.1 19 26.5
002EEBE3 2019-04-14 21:26:26 22.1 20 26.4
002EEBE3 2019-04-14 20:52:45 22.1 20 26.6
002EEBE3 2019-04-14 20:19:06 22.1 20 26.7
002EEBE3 2019-04-14 19:45:25 22.1 20 26.6
002EEBE3 2019-04-14 19:11:46 22.1 20 26.7
002EEBE3 2019-04-14 18:38:05 22.1 20 26.9
002EEBE3 2019-04-14 18:04:25 21.9 19 26.8
002EEBE3 2019-04-14 17:30:47 21.9 20 26.7
002EEBE3 2019-04-14 16:57:07 21.9 20 26.8
002EEBE3 2019-04-14 16:23:26 21.9 20 26.8
002EEBE3 2019-04-14 15:49:46 21.9 20 26.8
002EEBE3 2019-04-14 15:16:05 21.9 20 26.8
002EEBE3 2019-04-14 14:42:25 21.9 20 26.8
002EEBE3 2019-04-14 14:08:44 22 20 26.8
002EEBE3 2019-04-14 13:35:03 21.9 20 26.8
002EEBE3 2019-04-14 13:01:21 21.9 20 26.8
002EEBE3 2019-04-14 12:27:39 22 20 26.8
002EEBE3 2019-04-14 11:53:57 21.9 20 26.8
002EEBE3 2019-04-14 11:20:17 21.9 20 26.8
002EEBE3 2019-04-14 10:46:34 21.9 20 26.6
002EEBE3 2019-04-14 10:12:53 21.9 20 26.6
002EEBE3 2019-04-14 09:39:12 21.9 20 26.6
002EEBE3 2019-04-14 09:05:31 21.9 20 26.7
002EEBE3 2019-04-14 08:31:50 21.9 20 26.6
002EEBE3 2019-04-14 07:58:10 21.9 20 26.6
002EEBE3 2019-04-14 07:24:30 21.9 19 26.7
002EEBE3 2019-04-14 06:50:49 21.9 19 26.5
002EEBE3 2019-04-14 06:17:09 21.9 19 26.4
002EEBE3 2019-04-14 05:43:29 21.9 19 26.4
002EEBE3 2019-04-14 05:09:48 21.9 19 26.3
002EEBE3 2019-04-14 04:36:07 21.9 19 26.1
002EEBE3 2019-04-14 04:02:25 21.9 19 26.2
002EEBE3 2019-04-14 03:28:45 22 19 26.2
002EEBE3 2019-04-14 02:55:04 22.1 19 26.1
002EEBE3 2019-04-14 02:21:23 22.1 20 26.2
002EEBE3 2019-04-14 01:47:42 22.1 20 26
002EEBE3 2019-04-14 01:14:02 22.1 20 25.9
002EEBE3 2019-04-14 00:40:21 22.1 19 25.9
002EEBE3 2019-04-14 00:06:38 22.1 19 25.8
002EEBE3 2019-04-13 23:32:57 22.1 19 25.9
002EEBE3 2019-04-13 22:59:16 22.1 19 26
002EEBE3 2019-04-13 22:25:35 22.1 19 25.9
002EEBE3 2019-04-13 21:51:54 22.1 19 26
002EEBE3 2019-04-13 21:18:13 22.1 19 26
002EEBE3 2019-04-13 20:44:30 22.1 19 26.1
002EEBE3 2019-04-13 20:10:47 22.2 19 26.1
002EEBE3 2019-04-13 19:37:05 22.2 19 26
002EEBE3 2019-04-13 19:03:23 22.3 19 25.9
002EEBE3 2019-04-13 18:29:40 22.3 19 25.9
002EEBE3 2019-04-13 17:55:59 22.3 19 26
002EEBE3 2019-04-13 17:22:18 22.3 19 25.9
002EEBE3 2019-04-13 16:48:37 22.3 19 25.9
002EEBE3 2019-04-13 16:14:56 22.3 19 25.8
002EEBE3 2019-04-13 15:41:15 22.3 20 25.8
002EEBE3 2019-04-13 15:07:33 22.3 19 26
002EEBE3 2019-04-13 14:33:53 22.3 19 26
002EEBE3 2019-04-13 14:00:12 22.3 20 25.9
002EEBE3 2019-04-13 13:26:29 22.3 20 26
002EEBE3 2019-04-13 12:52:48 22.4 19 26.1
002EEBE3 2019-04-13 12:19:07 22.4 20 26
002EEBE3 2019-04-13 11:45:25 22.4 20 26.1
002EEBE3 2019-04-13 11:11:44 22.3 20 26.3
002EEBE3 2019-04-13 10:38:02 22.3 20 26.2
002EEBE3 2019-04-13 10:04:20 22.3 19 26.2
002EEBE3 2019-04-13 09:30:39 22.3 19 26.2
002EEBE3 2019-04-13 08:56:59 22.3 19 26
002EEBE3 2019-04-13 08:23:18 22.3 19 26.1
002EEBE3 2019-04-13 07:49:37 22.3 19 26
002EEBE3 2019-04-13 07:15:57 22.3 19 25.9
002EEBE3 2019-04-13 06:42:16 22.3 19 25.9
002EEBE3 2019-04-13 06:08:35 22.3 19 25.8
002EEBE3 2019-04-13 05:34:52 22.3 19 25.9
002EEBE3 2019-04-13 05:01:10 22.3 19 26.1
002EEBE3 2019-04-13 04:27:29 22.3 19 26.4
002EEBE3 2019-04-13 03:53:46 22.5 19 26.5
002EEBE3 2019-04-13 03:20:05 22.5 19 26.4
002EEBE3 2019-04-13 02:46:23 22.5 19 26.3
002EEBE3 2019-04-13 02:12:42 22.5 20 26.3
002EEBE3 2019-04-13 01:39:01 22.5 20 26.4
002EEBE3 2019-04-13 01:05:20 22.5 20 26.2
002EEBE3 2019-04-13 00:31:37 22.5 20 26.3
002EEBE3 2019-04-12 23:57:56 22.7 20 26.2
002EEBE3 2019-04-12 23:24:14 22.7 20 26.3
002EEBE3 2019-04-12 22:50:34 22.8 20 26.1
002EEBE3 2019-04-12 22:16:53 22.8 20 26.2
002EEBE3 2019-04-12 21:43:12 22.8 21 26.2
002EEBE3 2019-04-12 21:09:30 22.8 21 26
002EEBE3 2019-04-12 20:35:48 22.8 21 26.1
002EEBE3 2019-04-12 20:02:07 22.8 20 26.2
002EEBE3 2019-04-12 19:28:25 22.9 20 26.2
002EEBE3 2019-04-12 18:54:45 22.9 20 26.3
002EEBE3 2019-04-12 18:21:04 23 18 26.2
002EEBE3 2019-04-12 17:47:22 23 18 26.4
002EEBE3 2019-04-12 17:13:43 23.1 19 26.7
002EEBE3 2019-04-12 16:39:59 23.1 19 26.9
002EEBE3 2019-04-12 16:06:18 23 19 27.2
002EEBE3 2019-04-12 15:32:36 22.9 20 27.3
002EEBE3 2019-04-12 14:58:56 22.8 20 27.1
002EEBE3 2019-04-12 14:25:15 22.5 21 25.5
002EEBE3 2019-04-12 13:51:33 22 21 15.4
002EEBE3 2019-04-12 13:17:51 21.3 25 12.3